TimeBST,TemperatureF,Dew PointF,Humidity,Sea Level PressureIn,VisibilityMPH,Wind Direction,Wind SpeedMPH,Gust SpeedMPH,PrecipitationIn,Events,Conditions,WindDirDegrees,DateUTC
12:44 AM,57.2,53.6,88,29.62,6.2,SSW,13.8,-,N/A,,Mostly Cloudy,210,2012-10-02 23:44:00
12:50 AM,57.2,53.6,88,29.62,6.2,SSW,15.0,-,N/A,,Mostly Cloudy,200,2012-10-02 23:50:00
12:58 AM,56.7,53.4,89,29.62,6.2,SSW,16.1,23.0,N/A,,Overcast,200,2012-10-02 23:58:00
1:09 AM,57.2,53.6,88,29.61,6.2,SSW,16.1,23.0,N/A,,Overcast,200,2012-10-03 00:09:00
1:15 AM,57.2,53.6,88,29.61,6.2,SSW,18.4,23.0,N/A,,Mostly Cloudy,210,2012-10-03 00:15:00
1:31 AM,57.2,53.6,88,29.61,6.2,SSW,16.1,-,N/A,Rain,Light Rain,210,2012-10-03 00:31:00
1:36 AM,57.2,53.6,88,29.62,6.2,SW,16.1,-,N/A,Rain,Light Rain,220,2012-10-03 00:36:00
1:37 AM,57.2,53.6,88,29.62,6.2,SW,17.3,-,N/A,Rain,Light Rain,220,2012-10-03 00:37:00
1:39 AM,57.2,53.6,88,29.62,6.2,SW,19.6,-,N/A,Rain,Light Rain,220,2012-10-03 00:39:00
1:58 AM,55.6,52.5,89,29.63,6.2,SW,18.4,25.3,0.02,Rain,Light Rain,220,2012-10-03 00:58:00
2:12 AM,53.6,51.8,94,29.62,6.2,SW,17.3,-,N/A,,Overcast,220,2012-10-03 01:12:00
2:58 AM,53.8,51.6,92,29.63,6.2,SW,10.4,-,0.00,,Overcast,220,2012-10-03 01:58:00
3:18 AM,53.6,51.8,94,29.62,6.2,SW,10.4,-,N/A,Rain,Light Rain,220,2012-10-03 02:18:00
3:27 AM,53.6,51.8,94,29.62,6.2,SW,10.4,-,N/A,,Overcast,220,2012-10-03 02:27:00
3:58 AM,53.4,51.3,92,29.62,6.2,SW,10.4,-,0.00,,Scattered Clouds,230,2012-10-03 02:58:00
4:58 AM,52.9,50.0,90,29.62,6.2,SW,12.7,-,N/A,,Mostly Cloudy,230,2012-10-03 03:58:00
5:58 AM,52.0,48.4,88,29.63,6.2,SW,10.4,-,N/A,,Overcast,230,2012-10-03 04:58:00
6:58 AM,50.2,47.8,92,29.63,6.2,SW,9.2,-,N/A,,Scattered Clouds,220,2012-10-03 05:58:00
7:58 AM,49.5,47.5,93,29.65,6.2,SSW,9.2,-,N/A,,Clear,210,2012-10-03 06:58:00
8:58 AM,52.2,49.1,89,29.65,6.2,SW,15.0,-,N/A,,Mostly Cloudy,230,2012-10-03 07:58:00
9:58 AM,55.2,48.4,78,29.66,6.2,SW,19.6,23.0,N/A,,Clear,230,2012-10-03 08:58:00
10:58 AM,55.9,45.9,69,29.67,6.2,WSW,15.0,24.2,N/A,,Mostly Cloudy,250,2012-10-03 09:58:00
11:58 AM,55.4,45.0,68,29.68,6.2,WSW,13.8,-,N/A,,Mostly Cloudy,250,2012-10-03 10:58:00
12:58 PM,58.3,43.7,58,29.67,6.2,WSW,18.4,-,N/A,,Scattered Clouds,250,2012-10-03 11:58:00
1:58 PM,58.5,42.8,56,29.67,6.2,WSW,13.8,25.3,N/A,,Scattered Clouds,250,2012-10-03 12:58:00
2:11 PM,60.8,42.8,52,29.66,6.2,WSW,18.4,25.3,N/A,,Mostly Cloudy,240,2012-10-03 13:11:00
2:21 PM,59.0,42.8,55,29.66,6.2,West,16.1,25.3,N/A,,Mostly Cloudy,260,2012-10-03 13:21:00
2:58 PM,60.4,41.9,50,29.66,6.2,West,13.8,25.3,N/A,,Scattered Clouds,260,2012-10-03 13:58:00
3:58 PM,59.5,42.3,53,29.65,6.2,WSW,13.8,-,N/A,,Clear,240,2012-10-03 14:58:00
4:58 PM,56.3,42.4,60,29.65,6.2,SW,16.1,23.0,N/A,,Mostly Cloudy,220,2012-10-03 15:58:00
5:58 PM,54.0,44.8,71,29.65,6.2,SW,11.5,-,N/A,,Mostly Cloudy,220,2012-10-03 16:58:00
6:58 PM,51.6,43.0,72,29.65,6.2,SW,15.0,20.7,N/A,,Mostly Cloudy,220,2012-10-03 17:58:00
7:58 PM,50.9,43.7,76,29.65,6.2,SSW,10.4,-,N/A,,Scattered Clouds,210,2012-10-03 18:58:00
8:58 PM,50.9,45.7,82,29.66,6.2,SW,12.7,-,N/A,,Overcast,220,2012-10-03 19:58:00
9:58 PM,47.1,42.4,84,29.66,6.2,SW,9.2,-,N/A,,Clear,220,2012-10-03 20:58:00
10:58 PM,46.9,43.5,88,29.66,6.2,SW,11.5,-,N/A,,Clear,230,2012-10-03 21:58:00
11:58 PM,46.0,43.3,90,29.66,6.2,SW,6.9,-,N/A,,Clear,230,2012-10-03 22:58:00